Total_Precipitation_Accumulation
0.00 0.00 0.00 0.00 0.00 0.00 0.00 0.00 0.00 0.00 0.00 0.00 0.00 0.00 0.01 0.01 0.01 0.01 0.01 0.01 0.03 0.05 0.08 0.14 0.32 0.59 0.72 1.04 1.21 0.91 0.60 0.47 0.44 0.53 0.64 0.79 0.91 1.04 1.12 1.16 1.21 1.28 1.35 1.36
0.00 0.00 0.00 0.00 0.00 0.00 0.00 0.00 0.00 0.00 0.00 0.00 0.00 0.01 0.01 0.01 0.02 0.01 0.01 0.02 0.02 0.04 0.07 0.13 0.34 0.62 0.78 0.88 0.86 0.83 0.78 0.81 0.76 0.90 1.13 1.40 1.67 1.80 1.94 2.09 2.22 2.30 2.24 2.08
0.00 0.00 0.00 0.00 0.00 0.00 0.00 0.00 0.00 0.00 0.00 0.00 0.00 0.02 0.02 0.03 0.02 0.02 0.02 0.02 0.03 0.05 0.07 0.13 0.31 0.55 0.70 0.84 0.87 0.88 0.95 1.08 1.09 1.33 1.68 2.05 2.39 2.62 2.77 2.86 2.91 2.83 2.59 2.38
0.00 0.00 0.00 0.00 0.00 0.00 0.00 0.00 0.00 0.00 0.00 0.00 0.00 0.02 0.04 0.04 0.03 0.04 0.04 0.05 0.06 0.06 0.08 0.13 0.25 0.48 0.61 0.77 0.91 0.98 1.09 1.28 1.56 1.84 2.14 2.59 3.01 3.23 3.26 3.07 2.89 2.63 2.37 2.13
0.00 0.00 0.00 0.00 0.00 0.00 0.00 0.00 0.00 0.00 0.00 0.00 0.00 0.01 0.05 0.06 0.05 0.07 0.08 0.09 0.09 0.10 0.12 0.16 0.24 0.41 0.59 0.75 0.88 1.06 1.23 1.47 1.89 2.39 2.78 3.14 3.38 3.35 3.08 2.79 2.43 2.20 1.99 1.78
0.00 0.00 0.00 0.00 0.00 0.00 0.00 0.00 0.00 0.00 0.00 0.00 0.00 0.02 0.06 0.08 0.06 0.08 0.10 0.12 0.13 0.14 0.15 0.19 0.26 0.40 0.53 0.64 0.82 1.05 1.32 1.59 1.98 2.43 2.87 3.10 3.20 3.15 2.87 2.46 2.10 1.84 1.61 1.38
0.00 0.00 0.00 0.00 0.00 0.00 0.00 0.00 0.00 0.00 0.00 0.01 0.01 0.04 0.10 0.10 0.08 0.08 0.10 0.14 0.17 0.17 0.19 0.23 0.29 0.36 0.47 0.56 0.73 0.91 1.07 1.37 1.67 2.00 2.36 2.43 2.36 2.21 1.96 1.81 1.67 1.41 1.12 0.89
0.00 0.00 0.00 0.00 0.00 0.00 0.00 0.00 0.00 0.00 0.00 0.02 0.04 0.09 0.20 0.15 0.12 0.12 0.14 0.14 0.17 0.19 0.20 0.25 0.31 0.37 0.51 0.62 0.72 0.81 0.93 1.12 1.30 1.42 1.51 1.47 1.35 1.27 1.21 1.12 0.94 0.75 0.58 0.44
0.00 0.00 0.00 0.00 0.00 0.00 0.00 0.00 0.00 0.00 0.00 0.03 0.07 0.15 0.29 0.30 0.24 0.23 0.22 0.18 0.20 0.23 0.26 0.32 0.38 0.43 0.49 0.56 0.64 0.64 0.65 0.75 0.79 0.78 0.77 0.75 0.74 0.71 0.65 0.55 0.44 0.36 0.28 0.23
0.01 0.00 0.00 0.00 0.00 0.00 0.00 0.00 0.00 0.00 0.00 0.03 0.07 0.15 0.24 0.36 0.37 0.31 0.26 0.22 0.23 0.27 0.32 0.38 0.40 0.41 0.38 0.38 0.40 0.41 0.38 0.39 0.40 0.42 0.39 0.37 0.36 0.32 0.28 0.24 0.22 0.18 0.15 0.12
0.02 0.02 0.00 0.00 0.00 0.00 0.00 0.00 0.00 0.00 0.00 0.01 0.05 0.19 0.30 0.42 0.51 0.48 0.42 0.33 0.31 0.35 0.36 0.36 0.35 0.32 0.29 0.27 0.25 0.24 0.24 0.24 0.24 0.24 0.23 0.21 0.18 0.15 0.12 0.11 0.10 0.09 0.08 0.08
0.03 0.03 0.02 0.01 0.01 0.01 0.00 0.00 0.00 0.00 0.00 0.00 0.04 0.27 0.39 0.52 0.57 0.54 0.48 0.40 0.36 0.39 0.41 0.39 0.33 0.27 0.23 0.20 0.18 0.18 0.19 0.19 0.18 0.16 0.15 0.12 0.10 0.09 0.08 0.07 0.07 0.07 0.07 0.07
0.04 0.05 0.05 0.05 0.03 0.01 0.01 0.01 0.01 0.01 0.01 0.01 0.06 0.29 0.46 0.62 0.63 0.60 0.57 0.48 0.49 0.58 0.59 0.50 0.38 0.27 0.21 0.19 0.18 0.18 0.19 0.18 0.15 0.11 0.09 0.08 0.06 0.06 0.06 0.06 0.06 0.06 0.07 0.07
0.04 0.06 0.10 0.19 0.13 0.04 0.03 0.03 0.03 0.03 0.03 0.04 0.12 0.29 0.41 0.65 0.76 0.70 0.65 0.62 0.63 0.67 0.58 0.45 0.36 0.29 0.24 0.21 0.19 0.17 0.15 0.12 0.10 0.07 0.06 0.06 0.06 0.06 0.07 0.07 0.08 0.08 0.08 0.09
0.04 0.08 0.08 0.13 0.09 0.06 0.07 0.06 0.06 0.08 0.09 0.12 0.23 0.40 0.53 0.77 0.87 0.81 0.67 0.61 0.60 0.58 0.54 0.50 0.44 0.36 0.27 0.21 0.17 0.14 0.13 0.12 0.09 0.08 0.08 0.08 0.08 0.08 0.10 0.11 0.11 0.11 0.11 0.09
0.04 0.08 0.09 0.11 0.10 0.09 0.10 0.10 0.12 0.16 0.18 0.25 0.39 0.60 0.79 0.81 0.76 0.73 0.66 0.60 0.63 0.71 0.73 0.68 0.56 0.43 0.31 0.25 0.23 0.21 0.19 0.15 0.12 0.12 0.13 0.13 0.13 0.14 0.15 0.15 0.14 0.14 0.12 0.11
0.05 0.06 0.09 0.12 0.10 0.12 0.22 0.23 0.25 0.28 0.29 0.35 0.45 0.55 0.62 0.67 0.68 0.70 0.69 0.70 0.76 0.80 0.77 0.67 0.54 0.43 0.39 0.37 0.35 0.31 0.27 0.23 0.21 0.20 0.19 0.18 0.17 0.18 0.17 0.15 0.13 0.11 0.09 0.07
0.03 0.06 0.10 0.10 0.12 0.23 0.34 0.27 0.26 0.24 0.23 0.25 0.30 0.34 0.42 0.54 0.62 0.68 0.72 0.80 0.89 0.91 0.85 0.74 0.61 0.53 0.47 0.43 0.39 0.34 0.29 0.25 0.24 0.24 0.23 0.22 0.19 0.17 0.14 0.11 0.09 0.07 0.06 0.05
0.02 0.06 0.11 0.13 0.19 0.26 0.29 0.20 0.22 0.26 0.24 0.20 0.22 0.26 0.33 0.39 0.48 0.67 0.75 0.78 0.83 0.85 0.79 0.70 0.60 0.54 0.51 0.45 0.39 0.33 0.31 0.28 0.26 0.24 0.20 0.16 0.12 0.10 0.08 0.06 0.05 0.04 0.04 0.04
0.02 0.04 0.14 0.20 0.30 0.39 0.37 0.18 0.13 0.22 0.33 0.26 0.21 0.22 0.28 0.38 0.52 0.56 0.56 0.58 0.57 0.56 0.53 0.53 0.55 0.54 0.50 0.42 0.34 0.31 0.28 0.24 0.20 0.14 0.10 0.07 0.05 0.04 0.03 0.03 0.04 0.04 0.04 0.04
0.10 0.10 0.21 0.31 0.40 0.45 0.21 0.10 0.15 0.36 0.47 0.43 0.37 0.35 0.37 0.45 0.47 0.40 0.35 0.39 0.41 0.43 0.47 0.48 0.47 0.46 0.40 0.30 0.23 0.21 0.18 0.15 0.11 0.07 0.05 0.03 0.02 0.02 0.02 0.03 0.05 0.06 0.06 0.06
0.23 0.27 0.31 0.37 0.48 0.55 0.21 0.14 0.28 0.34 0.30 0.39 0.40 0.40 0.41 0.39 0.32 0.28 0.29 0.32 0.36 0.42 0.46 0.46 0.42 0.36 0.27 0.20 0.16 0.15 0.12 0.08 0.06 0.05 0.04 0.03 0.02 0.02 0.02 0.05 0.08 0.08 0.08 0.07
0.44 0.38 0.39 0.44 0.48 0.35 0.16 0.14 0.16 0.20 0.24 0.26 0.26 0.28 0.36 0.41 0.38 0.32 0.33 0.38 0.43 0.46 0.46 0.40 0.33 0.25 0.17 0.11 0.10 0.10 0.08 0.05 0.05 0.07 0.06 0.04 0.03 0.03 0.03 0.06 0.08 0.09 0.08 0.06
0.52 0.40 0.37 0.39 0.39 0.27 0.18 0.14 0.12 0.14 0.20 0.21 0.24 0.28 0.35 0.48 0.50 0.43 0.40 0.42 0.43 0.40 0.31 0.23 0.16 0.11 0.08 0.05 0.04 0.04 0.03 0.03 0.05 0.06 0.05 0.04 0.05 0.06 0.06 0.07 0.06 0.07 0.07 0.05
0.36 0.52 0.60 0.61 0.55 0.41 0.25 0.18 0.18 0.18 0.22 0.29 0.36 0.38 0.41 0.42 0.42 0.40 0.38 0.34 0.27 0.19 0.12 0.09 0.07 0.05 0.03 0.02 0.02 0.01 0.02 0.02 0.05 0.06 0.04 0.04 0.05 0.05 0.09 0.09 0.05 0.04 0.04 0.02
0.14 0.38 0.76 0.92 0.70 0.57 0.44 0.34 0.36 0.36 0.35 0.36 0.35 0.34 0.33 0.29 0.26 0.25 0.22 0.17 0.13 0.09 0.07 0.06 0.04 0.02 0.01 0.01 0.00 0.00 0.00 0.01 0.04 0.06 0.05 0.03 0.03 0.05 0.06 0.10 0.10 0.04 0.01 0.00